Time,TemperatureF,DewpointF,PressureIn,WindDirection,WindDirectionDegrees,WindSpeedMPH,WindSpeedGustMPH,Humidity,HourlyPrecipIn,Conditions,Clouds,dailyrainin,SoftwareType,DateUTC
2013-06-12 00:01:00,71.9,66.5,29.95,North,9,0.0,0.0,83,0.00,,,0.00,VWS V13.01,2013-06-12 05:01:00,
2013-06-12 00:05:00,71.9,65.8,29.95,North,9,0.0,0.0,81,0.00,,,0.00,VWS V13.01,2013-06-12 05:05:00,
2013-06-12 00:10:00,71.9,65.8,29.95,North,9,0.0,0.0,81,0.00,,,0.00,VWS V13.01,2013-06-12 05:10:00,
2013-06-12 00:15:00,71.8,65.6,29.95,North,9,0.0,0.0,81,0.00,,,0.00,VWS V13.01,2013-06-12 05:15:00,
2013-06-12 00:20:00,71.8,65.6,29.95,North,9,0.0,0.0,81,0.00,,,0.00,VWS V13.01,2013-06-12 05:20:00,
2013-06-12 00:25:00,71.6,65.4,29.95,North,9,0.0,0.0,81,0.00,,,0.00,VWS V13.01,2013-06-12 05:25:00,
2013-06-12 00:30:00,71.6,65.4,29.95,North,9,0.0,0.0,81,0.00,,,0.00,VWS V13.01,2013-06-12 05:30:00,
2013-06-12 00:35:00,71.4,65.6,29.95,North,9,0.0,0.0,82,0.00,,,0.00,VWS V13.01,2013-06-12 05:35:00,
2013-06-12 00:40:00,71.2,65.8,29.95,North,9,0.0,0.0,83,0.00,,,0.00,VWS V13.01,2013-06-12 05:40:00,
2013-06-12 00:45:00,70.9,66.1,29.95,North,9,0.0,0.0,85,0.00,,,0.00,VWS V13.01,2013-06-12 05:45:00,
2013-06-12 00:50:00,70.7,66.3,29.95,North,9,0.0,0.0,86,0.00,,,0.00,VWS V13.01,2013-06-12 05:50:00,
2013-06-12 00:55:00,70.5,66.4,29.95,North,9,0.0,0.0,87,0.00,,,0.00,VWS V13.01,2013-06-12 05:55:00,
2013-06-12 01:00:00,70.5,66.4,29.95,North,9,0.0,0.0,87,0.00,,,0.00,VWS V13.01,2013-06-12 06:00:00,
2013-06-12 01:05:00,70.3,66.6,29.95,North,9,0.0,0.0,88,0.00,,,0.00,VWS V13.01,2013-06-12 06:05:00,
2013-06-12 01:10:00,70.1,66.8,29.95,North,9,0.0,0.0,89,0.00,,,0.00,VWS V13.01,2013-06-12 06:10:00,
2013-06-12 01:15:00,70.1,67.1,29.95,North,9,0.0,0.0,90,0.00,,,0.00,VWS V13.01,2013-06-12 06:15:00,
2013-06-12 01:20:00,70.0,66.9,29.95,North,9,0.0,0.0,90,0.00,,,0.00,VWS V13.01,2013-06-12 06:20:00,
2013-06-12 01:25:00,70.1,67.1,29.95,North,9,0.0,0.0,90,0.00,,,0.00,VWS V13.01,2013-06-12 06:25:00,
2013-06-12 01:30:00,70.1,66.8,29.95,North,9,0.0,0.0,89,0.00,,,0.00,VWS V13.01,2013-06-12 06:30:00,
2013-06-12 01:35:00,70.0,66.6,29.95,North,9,0.0,0.0,89,0.00,,,0.00,VWS V13.01,2013-06-12 06:35:00,
2013-06-12 01:40:00,70.0,66.9,29.95,North,9,0.0,0.0,90,0.00,,,0.00,VWS V13.01,2013-06-12 06:40:00,
2013-06-12 01:45:00,69.8,66.7,29.92,North,9,0.0,0.0,90,0.00,,,0.00,VWS V13.01,2013-06-12 06:45:00,
2013-06-12 01:50:00,69.8,67.0,29.92,North,9,0.0,0.0,91,0.00,,,0.00,VWS V13.01,2013-06-12 06:50:00,
2013-06-12 01:55:00,69.6,66.9,29.92,North,9,0.0,0.0,91,0.00,,,0.00,VWS V13.01,2013-06-12 06:55:00,
2013-06-12 02:00:00,69.6,67.2,29.92,North,9,0.0,0.0,92,0.00,,,0.00,VWS V13.01,2013-06-12 07:00:00,
2013-06-12 02:05:00,69.6,67.5,29.92,North,9,0.0,0.0,93,0.00,,,0.00,VWS V13.01,2013-06-12 07:05:00,
2013-06-12 02:10:00,69.6,67.5,29.92,North,9,0.0,0.0,93,0.00,,,0.00,VWS V13.01,2013-06-12 07:10:00,
2013-06-12 02:15:00,69.6,67.5,29.92,North,9,0.0,0.0,93,0.00,,,0.00,VWS V13.01,2013-06-12 07:15:00,
2013-06-12 02:20:00,69.6,67.5,29.92,North,9,0.0,0.0,93,0.00,,,0.00,VWS V13.01,2013-06-12 07:20:00,
2013-06-12 02:25:00,69.4,67.3,29.92,North,9,0.0,0.0,93,0.00,,,0.00,VWS V13.01,2013-06-12 07:25:00,
2013-06-12 02:30:00,69.2,67.1,29.92,North,9,0.0,0.0,93,0.00,,,0.00,VWS V13.01,2013-06-12 07:30:00,
2013-06-12 02:35:00,69.1,67.3,29.92,North,9,0.0,0.0,94,0.00,,,0.00,VWS V13.01,2013-06-12 07:35:00,
2013-06-12 02:40:00,69.1,67.6,29.92,North,9,0.0,0.0,95,0.00,,,0.00,VWS V13.01,2013-06-12 07:40:00,
2013-06-12 02:45:00,68.9,67.4,29.92,North,9,0.0,0.0,95,0.00,,,0.00,VWS V13.01,2013-06-12 07:45:00,
2013-06-12 02:50:00,68.9,67.7,29.92,North,9,0.0,0.0,96,0.00,,,0.00,VWS V13.01,2013-06-12 07:50:00,
2013-06-12 02:55:00,68.9,67.7,29.92,North,9,0.0,0.0,96,0.00,,,0.00,VWS V13.01,2013-06-12 07:55:00,
2013-06-12 03:00:00,68.7,67.2,29.89,North,9,0.0,0.0,95,0.00,,,0.00,VWS V13.01,2013-06-12 08:00:00,
2013-06-12 03:05:00,68.7,67.5,29.89,North,9,0.0,0.0,96,0.00,,,0.00,VWS V13.01,2013-06-12 08:05:00,
2013-06-12 03:10:00,68.7,67.8,29.89,North,9,0.0,0.0,97,0.00,,,0.00,VWS V13.01,2013-06-12 08:10:00,
2013-06-12 03:15:00,68.5,67.6,29.92,North,9,0.0,0.0,97,0.00,,,0.00,VWS V13.01,2013-06-12 08:15:00,
2013-06-12 03:20:00,68.3,67.8,29.92,North,9,0.0,0.0,98,0.00,,,0.00,VWS V13.01,2013-06-12 08:20:00,
2013-06-12 03:25:00,68.3,68.3,29.92,North,9,0.0,0.0,100,0.00,,,0.00,VWS V13.01,2013-06-12 08:25:00,
2013-06-12 03:30:00,68.3,68.3,29.92,North,9,0.0,0.0,100,0.00,,,0.00,VWS V13.01,2013-06-12 08:30:00,
2013-06-12 03:35:00,68.2,68.2,29.92,North,9,0.0,0.0,100,0.00,,,0.00,VWS V13.01,2013-06-12 08:35:00,
2013-06-12 03:40:00,68.0,68.0,29.92,North,9,0.0,0.0,100,0.00,,,0.00,VWS V13.01,2013-06-12 08:40:00,
2013-06-12 03:45:00,67.8,67.8,29.92,North,9,0.0,0.0,100,0.00,,,0.00,VWS V13.01,2013-06-12 08:45:00,
2013-06-12 03:50:00,67.8,67.8,29.92,North,9,0.0,0.0,100,0.00,,,0.00,VWS V13.01,2013-06-12 08:50:00,
2013-06-12 03:55:00,67.8,67.8,29.92,North,9,0.0,0.0,100,0.00,,,0.00,VWS V13.01,2013-06-12 08:55:00,
2013-06-12 04:00:00,67.8,67.8,29.92,North,9,0.0,0.0,100,0.00,,,0.00,VWS V13.01,2013-06-12 09:00:00,
2013-06-12 04:05:00,67.6,67.6,29.92,North,9,0.0,0.0,100,0.00,,,0.00,VWS V13.01,2013-06-12 09:05:00,
2013-06-12 04:10:00,67.6,67.6,29.92,North,9,0.0,0.0,100,0.00,,,0.00,VWS V13.01,2013-06-12 09:10:00,
2013-06-12 04:15:00,67.8,67.8,29.92,East,81,0.0,0.0,100,0.00,,,0.00,VWS V13.01,2013-06-12 09:15:00,
2013-06-12 04:20:00,67.6,67.6,29.92,East,82,0.0,0.0,100,0.00,,,0.00,VWS V13.01,2013-06-12 09:20:00,
2013-06-12 04:25:00,67.4,67.4,29.92,East,82,0.0,0.0,100,0.00,,,0.00,VWS V13.01,2013-06-12 09:25:00,
2013-06-12 04:30:00,67.3,67.3,29.92,East,82,0.0,0.0,100,0.00,,,0.00,VWS V13.01,2013-06-12 09:30:00,
2013-06-12 04:35:00,67.3,67.3,29.92,East,82,0.0,0.0,100,0.00,,,0.00,VWS V13.01,2013-06-12 09:35:00,
2013-06-12 04:40:00,67.3,67.3,29.92,East,82,0.0,0.0,100,0.00,,,0.00,VWS V13.01,2013-06-12 09:40:00,
2013-06-12 04:45:00,67.3,67.3,29.92,East,82,0.0,0.0,100,0.00,,,0.00,VWS V13.01,2013-06-12 09:45:00,
2013-06-12 04:50:00,67.1,67.1,29.92,East,82,0.0,0.0,100,0.00,,,0.00,VWS V13.01,2013-06-12 09:50:00,
2013-06-12 04:55:00,67.1,67.1,29.92,East,82,0.0,0.0,100,0.00,,,0.00,VWS V13.01,2013-06-12 09:55:00,
2013-06-12 05:00:00,67.1,67.1,29.92,East,82,0.0,0.0,100,0.00,,,0.00,VWS V13.01,2013-06-12 10:00:00,
2013-06-12 05:05:00,67.1,67.1,29.92,East,82,0.0,0.0,100,0.00,,,0.00,VWS V13.01,2013-06-12 10:05:00,
2013-06-12 05:10:00,67.1,67.1,29.92,ENE,62,0.0,0.0,100,0.00,,,0.00,VWS V13.01,2013-06-12 10:10:00,
2013-06-12 05:15:00,66.9,66.9,29.92,NE,41,0.0,0.0,100,0.00,,,0.00,VWS V13.01,2013-06-12 10:15:00,
2013-06-12 05:20:00,66.9,66.9,29.92,NNE,12,0.0,0.0,100,0.00,,,0.00,VWS V13.01,2013-06-12 10:20:00,
2013-06-12 05:25:00,66.9,66.9,29.92,NNE,12,0.0,0.0,100,0.00,,,0.00,VWS V13.01,2013-06-12 10:25:00,
2013-06-12 05:30:00,67.1,67.1,29.92,NNE,12,0.0,0.0,100,0.00,,,0.00,VWS V13.01,2013-06-12 10:30:00,
2013-06-12 05:35:00,67.1,67.1,29.92,NNE,12,0.0,0.0,100,0.00,,,0.00,VWS V13.01,2013-06-12 10:35:00,
2013-06-12 05:40:00,67.1,67.1,29.92,NNE,12,0.0,0.0,100,0.00,,,0.00,VWS V13.01,2013-06-12 10:40:00,
2013-06-12 05:45:00,66.9,66.9,29.95,ENE,62,0.0,0.0,100,0.00,,,0.00,VWS V13.01,2013-06-12 10:45:00,
2013-06-12 05:50:00,66.7,66.7,29.95,NW,308,0.0,0.0,100,0.00,,,0.00,VWS V13.01,2013-06-12 10:50:00,
2013-06-12 05:55:00,66.7,66.7,29.95,WSW,249,0.0,0.0,100,0.00,,,0.00,VWS V13.01,2013-06-12 10:55:00,
2013-06-12 06:00:00,66.7,66.7,29.95,WSW,250,0.0,0.0,100,0.00,,,0.00,VWS V13.01,2013-06-12 11:00:00,
2013-06-12 06:05:00,66.7,66.7,29.95,WSW,249,0.0,0.0,100,0.00,,,0.00,VWS V13.01,2013-06-12 11:05:00,
2013-06-12 06:09:00,66.7,66.7,29.95,WSW,250,0.0,0.0,100,0.00,,,0.00,VWS V13.01,2013-06-12 11:09:00,
2013-06-12 06:14:00,66.7,66.7,29.95,WSW,249,0.0,0.0,100,0.00,,,0.00,VWS V13.01,2013-06-12 11:14:00,
2013-06-12 06:19:00,66.9,66.9,29.95,WSW,250,0.0,0.0,100,0.00,,,0.00,VWS V13.01,2013-06-12 11:19:00,
2013-06-12 06:24:00,66.9,66.9,29.95,WSW,250,0.0,0.0,100,0.00,,,0.00,VWS V13.01,2013-06-12 11:24:00,
2013-06-12 06:29:00,66.9,66.9,29.95,WSW,249,0.0,0.0,100,0.00,,,0.00,VWS V13.01,2013-06-12 11:29:00,
2013-06-12 06:34:00,66.9,66.9,29.95,WSW,250,0.0,0.0,100,0.00,,,0.00,VWS V13.01,2013-06-12 11:34:00,
2013-06-12 06:39:00,67.1,67.1,29.95,NE,37,2.7,2.7,100,0.00,,,0.00,VWS V13.01,2013-06-12 11:39:00,
2013-06-12 06:44:00,67.3,67.3,29.95,NE,37,0.0,0.0,100,0.00,,,0.00,VWS V13.01,2013-06-12 11:44:00,
2013-06-12 06:49:00,67.4,67.4,29.95,NE,37,0.0,0.0,100,0.00,,,0.00,VWS V13.01,2013-06-12 11:49:00,
2013-06-12 06:54:00,67.8,67.8,29.95,NE,37,0.0,0.0,100,0.00,,,0.00,VWS V13.01,2013-06-12 11:54:00,
2013-06-12 06:59:00,68.2,68.2,29.95,NNW,346,0.0,0.0,100,0.00,,,0.00,VWS V13.01,2013-06-12 11:59:00,
2013-06-12 07:04:00,68.5,68.5,29.95,NNE,26,0.0,0.0,100,0.00,,,0.00,VWS V13.01,2013-06-12 12:04:00,
2013-06-12 07:09:00,69.1,69.1,29.95,ENE,63,0.0,0.0,100,0.00,,,0.00,VWS V13.01,2013-06-12 12:09:00,
2013-06-12 07:14:00,69.2,69.2,29.98,NNW,345,0.0,0.0,100,0.00,,,0.00,VWS V13.01,2013-06-12 12:14:00,
2013-06-12 07:19:00,69.6,69.6,29.98,North,3,0.0,0.0,100,0.00,,,0.00,VWS V13.01,2013-06-12 12:19:00,
2013-06-12 07:24:00,70.5,70.5,29.98,North,3,0.0,0.0,100,0.00,,,0.00,VWS V13.01,2013-06-12 12:24:00,
2013-06-12 07:29:00,71.0,71.0,29.98,North,3,0.0,0.0,100,0.00,,,0.00,VWS V13.01,2013-06-12 12:29:00,
2013-06-12 07:34:00,71.8,69.3,29.98,NNE,12,0.0,0.0,92,0.00,,,0.00,VWS V13.01,2013-06-12 12:34:00,
2013-06-12 07:39:00,72.7,69.2,29.98,NNE,12,0.0,0.0,89,0.00,,,0.00,VWS V13.01,2013-06-12 12:39:00,
2013-06-12 07:44:00,73.4,69.9,29.98,NNE,12,0.0,0.0,89,0.00,,,0.00,VWS V13.01,2013-06-12 12:44:00,
2013-06-12 07:49:00,73.9,69.5,29.98,NNE,12,0.0,0.0,86,0.00,,,0.00,VWS V13.01,2013-06-12 12:49:00,
2013-06-12 07:54:00,74.8,70.0,29.98,SW,233,0.0,0.0,85,0.00,,,0.00,VWS V13.01,2013-06-12 12:54:00,
2013-06-12 07:59:00,75.2,69.3,29.98,SW,233,0.0,0.0,82,0.00,,,0.00,VWS V13.01,2013-06-12 12:59:00,
2013-06-12 08:04:00,75.4,68.8,29.98,SW,230,0.0,0.0,80,0.00,,,0.00,VWS V13.01,2013-06-12 13:04:00,
2013-06-12 08:09:00,75.9,68.6,29.98,SW,235,0.0,0.0,78,0.00,,,0.00,VWS V13.01,2013-06-12 13:09:00,
2013-06-12 08:14:00,76.1,67.2,29.98,WSW,245,0.0,0.0,74,0.00,,,0.00,VWS V13.01,2013-06-12 13:14:00,
2013-06-12 08:19:00,76.3,65.8,29.98,SW,222,0.0,2.2,70,0.00,,,0.00,VWS V13.01,2013-06-12 13:19:00,
2013-06-12 08:24:00,76.6,66.1,29.98,WSW,248,0.0,2.7,70,0.00,,,0.00,VWS V13.01,2013-06-12 13:24:00,
2013-06-12 08:29:00,76.8,66.3,29.98,SSW,192,3.1,3.1,70,0.00,,,0.00,VWS V13.01,2013-06-12 13:29:00,
2013-06-12 08:34:00,77.0,65.6,29.98,West,266,3.1,3.1,68,0.00,,,0.00,VWS V13.01,2013-06-12 13:34:00,
2013-06-12 08:39:00,77.2,65.4,29.98,WSW,250,4.0,4.0,67,0.00,,,0.00,VWS V13.01,2013-06-12 13:39:00,
2013-06-12 08:44:00,77.3,65.5,29.98,SW,224,5.4,5.4,67,0.00,,,0.00,VWS V13.01,2013-06-12 13:44:00,
2013-06-12 08:49:00,77.7,65.9,29.98,WSW,238,3.6,3.6,67,0.00,,,0.00,VWS V13.01,2013-06-12 13:49:00,
2013-06-12 08:54:00,77.7,65.4,29.98,SW,235,4.5,5.4,66,0.00,,,0.00,VWS V13.01,2013-06-12 13:54:00,
2013-06-12 08:59:00,78.1,66.2,30.01,South,174,3.1,3.6,67,0.00,,,0.00,VWS V13.01,2013-06-12 13:59:00,
2013-06-12 09:04:00,78.4,65.7,30.01,SSW,213,3.1,3.1,65,0.00,,,0.00,VWS V13.01,2013-06-12 14:04:00,
2013-06-12 09:09:00,78.6,66.3,30.01,South,188,4.0,4.0,66,0.00,,,0.00,VWS V13.01,2013-06-12 14:09:00,
2013-06-12 09:14:00,78.8,66.0,29.98,SSW,195,3.1,3.1,65,0.00,,,0.00,VWS V13.01,2013-06-12 14:14:00,
2013-06-12 09:19:00,79.1,65.5,29.98,West,262,6.3,6.3,63,0.00,,,0.00,VWS V13.01,2013-06-12 14:19:00,
2013-06-12 09:24:00,79.3,65.6,29.98,SW,231,8.3,8.3,63,0.00,,,0.00,VWS V13.01,2013-06-12 14:24:00,
2013-06-12 09:29:00,79.5,65.8,29.98,SW,226,3.6,4.9,63,0.00,,,0.00,VWS V13.01,2013-06-12 14:29:00,
2013-06-12 09:34:00,79.7,66.4,29.98,SSW,199,4.5,4.5,64,0.00,,,0.00,VWS V13.01,2013-06-12 14:34:00,
2013-06-12 09:39:00,80.0,66.8,29.98,WSW,243,5.4,5.8,64,0.00,,,0.00,VWS V13.01,2013-06-12 14:39:00,
2013-06-12 09:44:00,80.2,66.9,30.01,WSW,250,4.0,6.3,64,0.00,,,0.00,VWS V13.01,2013-06-12 14:44:00,
2013-06-12 09:49:00,80.4,66.7,30.01,South,182,5.4,6.3,63,0.00,,,0.00,VWS V13.01,2013-06-12 14:49:00,
2013-06-12 09:54:00,80.8,66.5,30.01,SW,230,3.6,5.8,62,0.00,,,0.00,VWS V13.01,2013-06-12 14:54:00,
2013-06-12 09:59:00,81.1,67.3,30.01,South,187,5.4,6.3,63,0.00,,,0.00,VWS V13.01,2013-06-12 14:59:00,
2013-06-12 10:04:00,81.1,66.4,30.01,SW,218,5.8,8.7,61,0.00,,,0.00,VWS V13.01,2013-06-12 15:04:00,
2013-06-12 10:09:00,81.1,66.4,30.01,WSW,247,8.1,8.1,61,0.00,,,0.00,VWS V13.01,2013-06-12 15:09:00,
2013-06-12 10:14:00,81.3,67.1,30.01,South,184,5.4,5.4,62,0.00,,,0.00,VWS V13.01,2013-06-12 15:14:00,
2013-06-12 10:19:00,81.7,66.9,30.01,SSW,195,5.8,5.8,61,0.00,,,0.00,VWS V13.01,2013-06-12 15:19:00,
2013-06-12 10:24:00,81.8,67.1,30.01,SW,236,5.8,5.8,61,0.00,,,0.00,VWS V13.01,2013-06-12 15:24:00,
2013-06-12 10:29:00,82.0,67.2,30.01,South,186,6.3,6.3,61,0.00,,,0.00,VWS V13.01,2013-06-12 15:29:00,
2013-06-12 10:34:00,82.0,67.2,30.01,WSW,239,7.6,7.6,61,0.00,,,0.00,VWS V13.01,2013-06-12 15:34:00,
2013-06-12 10:39:00,82.2,66.9,30.01,WSW,246,8.1,8.1,60,0.00,,,0.00,VWS V13.01,2013-06-12 15:39:00,
2013-06-12 10:44:00,82.2,66.9,30.01,SW,226,7.6,7.6,60,0.00,,,0.00,VWS V13.01,2013-06-12 15:44:00,
2013-06-12 10:49:00,82.6,67.3,30.01,SSE,161,6.3,6.3,60,0.00,,,0.00,VWS V13.01,2013-06-12 15:49:00,
2013-06-12 10:54:00,83.1,68.7,30.01,SW,222,5.8,5.8,62,0.00,,,0.00,VWS V13.01,2013-06-12 15:54:00,
2013-06-12 10:59:00,83.6,68.3,30.01,WSW,251,8.1,8.1,60,0.00,,,0.00,VWS V13.01,2013-06-12 15:59:00,
2013-06-12 11:04:00,83.8,68.0,30.01,SSE,154,3.6,4.0,59,0.00,,,0.00,VWS V13.01,2013-06-12 16:04:00,
2013-06-12 11:09:00,84.0,67.7,30.01,SSE,164,5.4,5.4,58,0.00,,,0.00,VWS V13.01,2013-06-12 16:09:00,
2013-06-12 11:14:00,84.2,66.3,30.01,WSW,258,8.7,8.7,55,0.00,,,0.00,VWS V13.01,2013-06-12 16:14:00,
2013-06-12 11:19:00,84.4,67.5,30.01,SSE,150,7.6,7.6,57,0.00,,,0.00,VWS V13.01,2013-06-12 16:19:00,
2013-06-12 11:24:00,84.4,66.4,30.01,WSW,242,8.1,8.7,55,0.00,,,0.00,VWS V13.01,2013-06-12 16:24:00,
2013-06-12 11:29:00,84.7,66.8,30.01,South,189,5.8,6.7,55,0.00,,,0.00,VWS V13.01,2013-06-12 16:29:00,
2013-06-12 11:34:00,85.1,67.6,30.01,SSW,194,8.7,8.7,56,0.00,,,0.00,VWS V13.01,2013-06-12 16:34:00,
2013-06-12 11:39:00,85.1,66.0,30.01,WSW,251,8.3,11.4,53,0.00,,,0.00,VWS V13.01,2013-06-12 16:39:00,
2013-06-12 11:44:00,85.1,67.1,29.98,WSW,244,5.8,12.8,55,0.00,,,0.00,VWS V13.01,2013-06-12 16:44:00,
2013-06-12 11:49:00,85.3,65.1,29.98,SSW,200,6.3,8.1,51,0.00,,,0.00,VWS V13.01,2013-06-12 16:49:00,
2013-06-12 11:54:00,85.4,65.8,29.98,WSW,249,17.4,17.4,52,0.00,,,0.00,VWS V13.01,2013-06-12 16:54:00,
2013-06-12 11:59:00,85.4,66.4,29.98,SW,227,6.7,6.7,53,0.00,,,0.00,VWS V13.01,2013-06-12 16:59:00,
2013-06-12 12:04:00,85.6,66.0,29.98,SW,215,8.3,8.7,52,0.00,,,0.00,VWS V13.01,2013-06-12 17:04:00,
2013-06-12 12:09:00,85.8,65.6,29.98,SW,215,8.1,8.1,51,0.00,,,0.00,VWS V13.01,2013-06-12 17:09:00,
2013-06-12 12:14:00,86.0,66.9,29.98,SSE,152,4.9,5.8,53,0.00,,,0.00,VWS V13.01,2013-06-12 17:14:00,
2013-06-12 12:19:00,86.2,67.0,29.98,WSW,238,7.2,7.6,53,0.00,,,0.00,VWS V13.01,2013-06-12 17:19:00,
2013-06-12 12:24:00,86.3,67.8,29.98,SW,218,3.6,5.8,54,0.00,,,0.00,VWS V13.01,2013-06-12 17:24:00,
2013-06-12 12:29:00,86.2,66.5,29.98,SSE,165,7.6,10.1,52,0.00,,,0.00,VWS V13.01,2013-06-12 17:29:00,
2013-06-12 12:34:00,86.2,66.5,29.98,SW,235,7.6,10.1,52,0.00,,,0.00,VWS V13.01,2013-06-12 17:34:00,
2013-06-12 12:39:00,86.3,66.1,29.98,SW,234,8.1,9.6,51,0.00,,,0.00,VWS V13.01,2013-06-12 17:39:00,
2013-06-12 12:44:00,86.7,66.4,29.98,SSW,192,5.4,7.6,51,0.00,,,0.00,VWS V13.01,2013-06-12 17:44:00,
2013-06-12 12:49:00,86.9,66.0,29.98,WSW,244,4.9,7.6,50,0.00,,,0.00,VWS V13.01,2013-06-12 17:49:00,
2013-06-12 12:54:00,86.7,66.4,29.98,SW,219,4.0,7.6,51,0.00,,,0.00,VWS V13.01,2013-06-12 17:54:00,
2013-06-12 12:58:00,86.9,66.6,29.98,West,275,5.4,8.3,51,0.00,,,0.00,VWS V13.01,2013-06-12 17:58:00,
2013-06-12 13:03:00,87.1,66.2,29.98,WSW,237,5.8,5.8,50,0.00,,,0.00,VWS V13.01,2013-06-12 18:03:00,
2013-06-12 13:08:00,87.6,67.2,29.98,South,174,7.6,8.1,51,0.00,,,0.00,VWS V13.01,2013-06-12 18:08:00,
2013-06-12 13:13:00,88.0,67.0,29.95,SSW,201,5.4,8.1,50,0.00,,,0.00,VWS V13.01,2013-06-12 18:13:00,
2013-06-12 13:18:00,88.1,66.6,29.95,SSW,204,5.8,9.2,49,0.00,,,0.00,VWS V13.01,2013-06-12 18:18:00,
2013-06-12 13:23:00,88.0,67.0,29.95,SSE,165,5.4,5.4,50,0.00,,,0.00,VWS V13.01,2013-06-12 18:23:00,
2013-06-12 13:28:00,88.0,66.4,29.95,SSW,196,4.0,4.9,49,0.00,,,0.00,VWS V13.01,2013-06-12 18:28:00,
2013-06-12 13:33:00,88.1,66.6,29.95,SSW,192,7.6,7.6,49,0.00,,,0.00,VWS V13.01,2013-06-12 18:33:00,
2013-06-12 13:38:00,88.3,66.8,29.95,SW,228,6.3,9.6,49,0.00,,,0.00,VWS V13.01,2013-06-12 18:38:00,
2013-06-12 13:43:00,88.5,66.9,29.95,SSE,150,11.0,11.0,49,0.00,,,0.00,VWS V13.01,2013-06-12 18:43:00,
2013-06-12 13:48:00,88.5,67.5,29.95,SSW,197,5.4,6.3,50,0.00,,,0.00,VWS V13.01,2013-06-12 18:48:00,
2013-06-12 13:53:00,88.9,67.2,29.95,SSW,208,7.2,7.2,49,0.00,,,0.00,VWS V13.01,2013-06-12 18:53:00,
2013-06-12 13:58:00,89.0,66.8,29.95,SE,143,5.8,8.3,48,0.00,,,0.00,VWS V13.01,2013-06-12 18:58:00,
2013-06-12 14:03:00,88.9,66.7,29.95,ESE,120,5.4,8.7,48,0.00,,,0.00,VWS V13.01,2013-06-12 19:03:00,
2013-06-12 14:08:00,88.9,66.7,29.95,South,190,5.8,6.7,48,0.00,,,0.00,VWS V13.01,2013-06-12 19:08:00,
2013-06-12 14:13:00,88.9,66.7,29.95,SE,143,6.3,8.7,48,0.00,,,0.00,VWS V13.01,2013-06-12 19:13:00,
2013-06-12 14:18:00,89.2,67.6,29.95,SSW,213,4.9,8.1,49,0.00,,,0.00,VWS V13.01,2013-06-12 19:18:00,
2013-06-12 14:23:00,89.4,66.5,29.95,South,189,6.3,9.2,47,0.00,,,0.00,VWS V13.01,2013-06-12 19:23:00,
2013-06-12 14:28:00,89.2,67.0,29.92,South,191,8.1,8.1,48,0.00,,,0.00,VWS V13.01,2013-06-12 19:28:00,
2013-06-12 14:33:00,89.2,67.0,29.92,SW,215,5.4,7.2,48,0.00,,,0.00,VWS V13.01,2013-06-12 19:33:00,
2013-06-12 14:38:00,89.2,67.0,29.92,SSW,193,4.0,6.7,48,0.00,,,0.00,VWS V13.01,2013-06-12 19:38:00,
2013-06-12 14:43:00,89.4,66.5,29.92,South,180,10.1,10.1,47,0.00,,,0.00,VWS V13.01,2013-06-12 19:43:00,
2013-06-12 14:48:00,89.8,67.5,29.92,SW,214,4.9,5.8,48,0.00,,,0.00,VWS V13.01,2013-06-12 19:48:00,
2013-06-12 14:53:00,90.1,67.8,29.92,SSW,199,4.0,5.8,48,0.00,,,0.00,VWS V13.01,2013-06-12 19:53:00,
2013-06-12 14:59:00,90.1,67.2,29.92,SSW,213,3.6,8.1,47,0.00,,,0.00,VWS V13.01,2013-06-12 19:59:00,
2013-06-12 15:04:00,89.9,67.0,29.92,South,182,8.1,8.7,47,0.00,,,0.00,VWS V13.01,2013-06-12 20:04:00,
2013-06-12 15:09:00,89.8,66.2,29.92,SSE,165,10.1,10.1,46,0.00,,,0.00,VWS V13.01,2013-06-12 20:09:00,
2013-06-12 15:14:00,89.9,67.0,29.92,SSE,163,3.1,8.7,47,0.00,,,0.00,VWS V13.01,2013-06-12 20:14:00,
2013-06-12 15:19:00,90.1,67.2,29.92,WSW,242,5.4,8.7,47,0.00,,,0.00,VWS V13.01,2013-06-12 20:19:00,
2013-06-12 15:24:00,90.1,67.8,29.92,SSW,192,3.6,4.9,48,0.00,,,0.00,VWS V13.01,2013-06-12 20:24:00,
2013-06-12 15:29:00,90.3,66.7,29.92,SSE,153,5.4,11.0,46,0.00,,,0.00,VWS V13.01,2013-06-12 20:29:00,
2013-06-12 15:34:00,90.1,67.2,29.92,East,94,12.8,12.8,47,0.00,,,0.00,VWS V13.01,2013-06-12 20:34:00,
2013-06-12 15:39:00,89.8,66.2,29.92,SE,129,4.0,5.8,46,0.00,,,0.00,VWS V13.01,2013-06-12 20:39:00,
2013-06-12 15:44:00,89.9,67.0,29.89,SSW,199,5.4,10.5,47,0.00,,,0.00,VWS V13.01,2013-06-12 20:44:00,
2013-06-12 15:49:00,90.3,67.3,29.89,SW,235,4.5,8.1,47,0.00,,,0.00,VWS V13.01,2013-06-12 20:49:00,
2013-06-12 15:54:00,90.3,66.1,29.89,SSW,210,6.3,10.1,45,0.00,,,0.00,VWS V13.01,2013-06-12 20:54:00,
2013-06-12 15:59:00,90.1,65.3,29.89,South,174,8.1,8.7,44,0.00,,,0.00,VWS V13.01,2013-06-12 20:59:00,
2013-06-12 16:04:00,90.1,66.6,29.89,SSW,198,4.0,7.6,46,0.00,,,0.00,VWS V13.01,2013-06-12 21:04:00,
2013-06-12 16:09:00,90.5,66.9,29.89,SSW,200,5.4,8.7,46,0.00,,,0.00,VWS V13.01,2013-06-12 21:09:00,
2013-06-12 16:14:00,90.5,67.5,29.89,SW,227,5.4,7.6,47,0.00,,,0.00,VWS V13.01,2013-06-12 21:14:00,
2013-06-12 16:19:00,90.7,67.7,29.89,SSE,147,5.8,5.8,47,0.00,,,0.00,VWS V13.01,2013-06-12 21:19:00,
2013-06-12 16:24:00,90.7,67.7,29.89,SSE,159,8.3,8.7,47,0.00,,,0.00,VWS V13.01,2013-06-12 21:24:00,
2013-06-12 16:29:00,90.7,67.7,29.89,WSW,243,5.8,6.7,47,0.00,,,0.00,VWS V13.01,2013-06-12 21:29:00,
2013-06-12 16:34:00,90.8,67.8,29.89,South,179,5.4,11.0,47,0.00,,,0.00,VWS V13.01,2013-06-12 21:34:00,
2013-06-12 16:39:00,90.7,67.7,29.89,South,189,8.3,8.3,47,0.00,,,0.00,VWS V13.01,2013-06-12 21:39:00,
2013-06-12 16:44:00,90.5,67.5,29.89,SSW,209,5.8,8.3,47,0.00,,,0.00,VWS V13.01,2013-06-12 21:44:00,
2013-06-12 16:49:00,90.3,67.3,29.89,South,188,8.1,8.1,47,0.00,,,0.00,VWS V13.01,2013-06-12 21:49:00,
2013-06-12 16:54:00,90.3,66.7,29.89,SSW,195,5.8,6.3,46,0.00,,,0.00,VWS V13.01,2013-06-12 21:54:00,
2013-06-12 16:59:00,90.3,67.3,29.89,SSE,155,8.7,8.7,47,0.00,,,0.00,VWS V13.01,2013-06-12 21:59:00,
2013-06-12 17:04:00,90.3,67.3,29.89,South,178,5.8,8.3,47,0.00,,,0.00,VWS V13.01,2013-06-12 22:04:00,
2013-06-12 17:09:00,90.5,66.9,29.89,South,174,7.6,7.6,46,0.00,,,0.00,VWS V13.01,2013-06-12 22:09:00,
2013-06-12 17:14:00,90.3,65.4,29.89,SW,214,5.8,8.3,44,0.00,,,0.00,VWS V13.01,2013-06-12 22:14:00,
2013-06-12 17:19:00,90.3,66.1,29.89,South,183,6.3,10.1,45,0.00,,,0.00,VWS V13.01,2013-06-12 22:19:00,
2013-06-12 17:24:00,90.3,66.7,29.89,SSE,160,9.2,9.2,46,0.00,,,0.00,VWS V13.01,2013-06-12 22:24:00,
2013-06-12 17:29:00,90.3,67.3,29.89,SW,215,3.1,6.3,47,0.00,,,0.00,VWS V13.01,2013-06-12 22:29:00,
2013-06-12 17:34:00,90.3,66.1,29.89,West,270,7.6,12.8,45,0.00,,,0.00,VWS V13.01,2013-06-12 22:34:00,
2013-06-12 17:39:00,90.1,65.9,29.89,SSW,195,7.6,8.3,45,0.00,,,0.00,VWS V13.01,2013-06-12 22:39:00,
2013-06-12 17:44:00,90.1,66.6,29.89,SW,220,5.8,5.8,46,0.00,,,0.00,VWS V13.01,2013-06-12 22:44:00,
2013-06-12 17:49:00,89.9,67.0,29.89,WSW,244,4.0,7.6,47,0.00,,,0.00,VWS V13.01,2013-06-12 22:49:00,
2013-06-12 17:54:00,90.1,67.2,29.89,South,182,5.8,6.3,47,0.00,,,0.00,VWS V13.01,2013-06-12 22:54:00,
2013-06-12 17:59:00,90.1,67.2,29.86,SSW,211,3.6,4.0,47,0.00,,,0.00,VWS V13.01,2013-06-12 22:59:00,
2013-06-12 18:04:00,90.1,67.2,29.86,SSW,202,8.3,8.3,47,0.00,,,0.00,VWS V13.01,2013-06-12 23:04:00,
2013-06-12 18:09:00,90.1,67.2,29.86,SW,236,4.9,5.8,47,0.00,,,0.00,VWS V13.01,2013-06-12 23:09:00,
2013-06-12 18:14:00,89.9,66.4,29.86,SW,226,3.1,4.9,46,0.00,,,0.00,VWS V13.01,2013-06-12 23:14:00,
2013-06-12 18:19:00,89.8,66.2,29.86,SSW,196,4.0,8.3,46,0.00,,,0.00,VWS V13.01,2013-06-12 23:19:00,
2013-06-12 18:24:00,89.6,66.1,29.86,South,181,8.3,8.3,46,0.00,,,0.00,VWS V13.01,2013-06-12 23:24:00,
2013-06-12 18:29:00,89.4,66.5,29.86,SSW,196,4.9,5.4,47,0.00,,,0.00,VWS V13.01,2013-06-12 23:29:00,
2013-06-12 18:34:00,89.4,66.5,29.86,SW,236,5.4,5.8,47,0.00,,,0.00,VWS V13.01,2013-06-12 23:34:00,
2013-06-12 18:39:00,89.2,67.0,29.86,WSW,241,3.6,4.9,48,0.00,,,0.00,VWS V13.01,2013-06-12 23:39:00,
2013-06-12 18:44:00,89.0,66.8,29.86,South,175,3.6,4.9,48,0.00,,,0.00,VWS V13.01,2013-06-12 23:44:00,
2013-06-12 18:49:00,88.9,66.7,29.86,SSW,201,4.9,6.3,48,0.00,,,0.00,VWS V13.01,2013-06-12 23:49:00,
2013-06-12 18:54:00,88.9,66.7,29.86,South,170,4.0,4.0,48,0.00,,,0.00,VWS V13.01,2013-06-12 23:54:00,
2013-06-12 18:59:00,88.7,66.5,29.89,South,181,5.4,5.4,48,0.00,,,0.00,VWS V13.01,2013-06-12 23:59:00,
2013-06-12 19:04:00,88.5,66.3,29.89,SSW,192,4.0,5.8,48,0.00,,,0.00,VWS V13.01,2013-06-13 00:04:00,
2013-06-12 19:09:00,88.1,66.0,29.89,South,190,5.4,8.7,48,0.00,,,0.00,VWS V13.01,2013-06-13 00:09:00,
2013-06-12 19:14:00,87.8,65.7,29.89,SSE,167,6.7,7.2,48,0.00,,,0.00,VWS V13.01,2013-06-13 00:14:00,
2013-06-12 19:19:00,87.6,65.5,29.89,South,178,7.2,7.2,48,0.00,,,0.00,VWS V13.01,2013-06-13 00:19:00,
2013-06-12 19:24:00,87.4,65.9,29.89,South,172,6.3,7.6,49,0.00,,,0.00,VWS V13.01,2013-06-13 00:24:00,
2013-06-12 19:29:00,87.2,65.8,29.89,SSW,198,6.3,6.3,49,0.00,,,0.00,VWS V13.01,2013-06-13 00:29:00,
2013-06-12 19:34:00,87.1,65.6,29.89,South,188,2.7,4.9,49,0.00,,,0.00,VWS V13.01,2013-06-13 00:34:00,
2013-06-12 19:39:00,86.7,65.9,29.89,SSE,162,4.9,4.9,50,0.00,,,0.00,VWS V13.01,2013-06-13 00:39:00,
2013-06-12 19:44:00,86.5,65.7,29.89,SSE,161,3.1,3.6,50,0.00,,,0.00,VWS V13.01,2013-06-13 00:44:00,
2013-06-12 19:49:00,86.2,65.4,29.89,South,185,2.7,4.9,50,0.00,,,0.00,VWS V13.01,2013-06-13 00:49:00,
2013-06-12 19:54:00,86.0,65.2,29.89,SW,214,2.2,3.1,50,0.00,,,0.00,VWS V13.01,2013-06-13 00:54:00,
2013-06-12 19:59:00,85.8,65.0,29.89,SSW,211,2.2,3.1,50,0.00,,,0.00,VWS V13.01,2013-06-13 00:59:00,
2013-06-12 20:04:00,85.4,65.8,29.89,SSW,196,3.6,3.6,52,0.00,,,0.00,VWS V13.01,2013-06-13 01:04:00,
2013-06-12 20:08:00,85.1,65.5,29.89,SSW,195,2.2,2.7,52,0.00,,,0.00,VWS V13.01,2013-06-13 01:08:00,
2013-06-12 20:13:00,84.5,65.0,29.89,SSW,198,2.2,2.7,52,0.00,,,0.00,VWS V13.01,2013-06-13 01:13:00,
2013-06-12 20:18:00,84.2,65.2,29.89,SSW,196,2.7,2.7,53,0.00,,,0.00,VWS V13.01,2013-06-13 01:18:00,
2013-06-12 20:23:00,83.8,65.4,29.89,SW,223,0.0,0.0,54,0.00,,,0.00,VWS V13.01,2013-06-13 01:23:00,
2013-06-12 20:28:00,83.5,65.6,29.89,SW,218,0.0,0.0,55,0.00,,,0.00,VWS V13.01,2013-06-13 01:28:00,
2013-06-12 20:33:00,83.1,65.8,29.89,SSW,193,0.0,0.0,56,0.00,,,0.00,VWS V13.01,2013-06-13 01:33:00,
2013-06-12 20:38:00,82.7,65.5,29.89,South,185,2.2,2.2,56,0.00,,,0.00,VWS V13.01,2013-06-13 01:38:00,
2013-06-12 20:43:00,82.6,65.3,29.89,South,186,0.0,2.2,56,0.00,,,0.00,VWS V13.01,2013-06-13 01:43:00,
2013-06-12 20:48:00,82.4,65.6,29.89,South,186,0.0,0.0,57,0.00,,,0.00,VWS V13.01,2013-06-13 01:48:00,
2013-06-12 20:53:00,82.0,66.3,29.89,South,185,0.0,0.0,59,0.00,,,0.00,VWS V13.01,2013-06-13 01:53:00,
2013-06-12 20:58:00,81.5,65.8,29.89,South,182,3.6,3.6,59,0.00,,,0.00,VWS V13.01,2013-06-13 01:58:00,
2013-06-12 21:03:00,81.3,66.1,29.89,SSE,167,3.1,3.1,60,0.00,,,0.00,VWS V13.01,2013-06-13 02:03:00,
2013-06-12 21:08:00,80.9,65.8,29.89,South,174,2.7,3.1,60,0.00,,,0.00,VWS V13.01,2013-06-13 02:08:00,
2013-06-12 21:13:00,80.8,65.6,29.89,SSW,192,0.0,0.0,60,0.00,,,0.00,VWS V13.01,2013-06-13 02:13:00,
2013-06-12 21:18:00,80.6,65.9,29.89,South,182,3.6,3.6,61,0.00,,,0.00,VWS V13.01,2013-06-13 02:18:00,
2013-06-12 21:23:00,80.4,65.7,29.89,SSE,167,4.0,4.0,61,0.00,,,0.00,VWS V13.01,2013-06-13 02:23:00,
2013-06-12 21:28:00,80.4,65.7,29.89,South,180,3.1,3.1,61,0.00,,,0.00,VWS V13.01,2013-06-13 02:28:00,
2013-06-12 21:33:00,80.4,65.7,29.89,South,177,2.2,2.2,61,0.00,,,0.00,VWS V13.01,2013-06-13 02:33:00,
2013-06-12 21:38:00,80.4,66.2,29.89,South,177,2.7,2.7,62,0.00,,,0.00,VWS V13.01,2013-06-13 02:38:00,
2013-06-12 21:43:00,80.2,66.0,29.89,South,176,0.0,0.0,62,0.00,,,0.00,VWS V13.01,2013-06-13 02:43:00,
2013-06-12 21:48:00,80.0,65.9,29.89,SSW,200,0.0,0.0,62,0.00,,,0.00,VWS V13.01,2013-06-13 02:48:00,
2013-06-12 21:53:00,79.9,66.2,29.89,WSW,242,0.0,0.0,63,0.00,,,0.00,VWS V13.01,2013-06-13 02:53:00,
2013-06-12 21:58:00,79.9,66.6,29.89,WSW,242,0.0,0.0,64,0.00,,,0.00,VWS V13.01,2013-06-13 02:58:00,
2013-06-12 22:03:00,79.7,66.4,29.89,WSW,254,0.0,2.2,64,0.00,,,0.00,VWS V13.01,2013-06-13 03:03:00,
2013-06-12 22:08:00,79.5,66.3,29.89,WSW,243,3.1,3.6,64,0.00,,,0.00,VWS V13.01,2013-06-13 03:08:00,
2013-06-12 22:13:00,79.5,66.3,29.92,SW,214,0.0,2.7,64,0.00,,,0.00,VWS V13.01,2013-06-13 03:13:00,
2013-06-12 22:18:00,79.3,66.5,29.92,SSW,213,0.0,0.0,65,0.00,,,0.00,VWS V13.01,2013-06-13 03:18:00,
2013-06-12 22:23:00,79.1,66.4,29.92,SSW,213,0.0,0.0,65,0.00,,,0.00,VWS V13.01,2013-06-13 03:23:00,
2013-06-12 22:28:00,79.0,66.2,29.92,SSW,213,0.0,0.0,65,0.00,,,0.00,VWS V13.01,2013-06-13 03:28:00,
2013-06-12 22:33:00,77.9,66.1,29.92,WNW,295,0.0,0.0,67,0.00,,,0.00,VWS V13.01,2013-06-13 03:33:00,
2013-06-12 22:38:00,77.2,66.2,29.92,NNW,339,0.0,0.0,69,0.00,,,0.00,VWS V13.01,2013-06-13 03:38:00,
2013-06-12 22:43:00,76.8,65.9,29.92,NNW,339,0.0,0.0,69,0.00,,,0.00,VWS V13.01,2013-06-13 03:43:00,
2013-06-12 22:48:00,76.6,65.7,29.92,NNW,339,0.0,0.0,69,0.00,,,0.00,VWS V13.01,2013-06-13 03:48:00,
2013-06-12 22:53:00,76.4,65.9,29.92,NNW,339,0.0,0.0,70,0.00,,,0.00,VWS V13.01,2013-06-13 03:53:00,
2013-06-12 22:58:00,76.3,66.2,29.92,NNW,339,0.0,0.0,71,0.00,,,0.00,VWS V13.01,2013-06-13 03:58:00,
2013-06-12 23:01:00,76.3,66.2,29.92,NNW,339,0.0,0.0,71,0.00,,,0.00,VWS V13.01,2013-06-13 04:01:00,
2013-06-12 23:06:00,76.1,66.4,29.92,NNW,339,0.0,0.0,72,0.00,,,0.00,VWS V13.01,2013-06-13 04:06:00,
2013-06-12 23:11:00,75.7,66.1,29.92,NNW,339,0.0,0.0,72,0.00,,,0.00,VWS V13.01,2013-06-13 04:11:00,
2013-06-12 23:16:00,75.4,66.5,29.92,NNW,339,0.0,0.0,74,0.00,,,0.00,VWS V13.01,2013-06-13 04:16:00,
2013-06-12 23:21:00,75.2,66.7,29.92,NNW,339,0.0,0.0,75,0.00,,,0.00,VWS V13.01,2013-06-13 04:21:00,
2013-06-12 23:26:00,74.8,67.1,29.92,NNW,339,0.0,0.0,77,0.00,,,0.00,VWS V13.01,2013-06-13 04:26:00,
2013-06-12 23:31:00,74.5,67.5,29.92,NNW,339,0.0,0.0,79,0.00,,,0.00,VWS V13.01,2013-06-13 04:31:00,
2013-06-12 23:36:00,74.1,67.5,29.92,NNW,339,0.0,0.0,80,0.00,,,0.00,VWS V13.01,2013-06-13 04:36:00,
2013-06-12 23:41:00,73.9,68.1,29.92,NNW,339,0.0,0.0,82,0.00,,,0.00,VWS V13.01,2013-06-13 04:41:00,
2013-06-12 23:46:00,73.7,67.9,29.92,NNW,339,0.0,0.0,82,0.00,,,0.00,VWS V13.01,2013-06-13 04:46:00,
2013-06-12 23:51:00,73.7,67.9,29.92,NNW,339,0.0,0.0,82,0.00,,,0.00,VWS V13.01,2013-06-13 04:51:00,
2013-06-12 23:56:00,73.7,68.3,29.92,NNW,339,0.0,0.0,83,0.00,,,0.00,VWS V13.01,2013-06-13 04:56:00,